• In Deutschland
  • Länderverzeichnis
  • Für 7 Tage
  • Wassertemperatur
  • Satellitenkarten
  • Wetterkarte
  • Widgets
  • user-avatar
    Anmelden

    Stündliche Wetter Naschawar

    Heute, 17 Januar, Mittwoch

    Zeit Temperatur Niederschläge Wind Luftdruck Luftfeuchtigkeit
    00:00 +13°C° 0 mm 1 m/S 728 mmHg 20%
    01:00 +13°C° 0 mm 1 m/S 728 mmHg 21%
    02:00 +12°C° 0 mm 1 m/S 728 mmHg 21%
    03:00 +12°C° 0 mm 1 m/S 728 mmHg 22%
    04:00 +12°C° 0 mm 1 m/S 728 mmHg 23%
    05:00 +11°C° 0 mm 1 m/S 728 mmHg 24%
    06:00 +11°C° 0 mm 1 m/S 729 mmHg 25%
    07:00 +11°C° 0 mm 1 m/S 729 mmHg 26%
    08:00 +11°C° 0 mm 1 m/S 730 mmHg 27%
    09:00 +13°C° 0 mm 1 m/S 731 mmHg 24%
    10:00 +15°C° 0 mm 2 m/S 731 mmHg 21%
    11:00 +17°C° 0 mm 2 m/S 732 mmHg 18%
    12:00 +18°C° 0 mm 2 m/S 732 mmHg 18%
    13:00 +19°C° 0 mm 2 m/S 732 mmHg 17%
    14:00 +20°C° 0 mm 2 m/S 732 mmHg 16%
    15:00 +19°C° 0 mm 2 m/S 732 mmHg 18%
    16:00 +18°C° 0 mm 2 m/S 732 mmHg 19%
    17:00 +18°C° 0 mm 2 m/S 732 mmHg 21%
    18:00 +17°C° 0 mm 2 m/S 733 mmHg 22%
    19:00 +16°C° 0 mm 3 m/S 733 mmHg 24%
    20:00 +14°C° 0 mm 3 m/S 734 mmHg 25%
    21:00 +13°C° 0 mm 3 m/S 734 mmHg 26%
    22:00 +13°C° 0 mm 3 m/S 735 mmHg 27%
    23:00 +12°C° 0 mm 3 m/S 735 mmHg 27%

    Morgen, 18 Januar, Donnerstag

    Zeit Temperatur Niederschläge Wind Luftdruck Luftfeuchtigkeit
    00:00 +12°C° 0 mm 3 m/S 735 mmHg 28%
    01:00 +12°C° 0 mm 3 m/S 735 mmHg 29%
    02:00 +11°C° 0 mm 3 m/S 735 mmHg 30%
    03:00 +11°C° 0 mm 3 m/S 735 mmHg 30%
    04:00 +11°C° 0 mm 3 m/S 735 mmHg 29%
    05:00 +11°C° 0 mm 3 m/S 735 mmHg 29%
    06:00 +11°C° 0 mm 3 m/S 735 mmHg 28%
    07:00 +11°C° 0 mm 3 m/S 735 mmHg 27%
    08:00 +11°C° 0 mm 3 m/S 735 mmHg 26%
    09:00 +13°C° 0 mm 3 m/S 735 mmHg 23%
    10:00 +15°C° 0 mm 4 m/S 736 mmHg 20%
    11:00 +18°C° 0 mm 4 m/S 736 mmHg 18%
    12:00 +19°C° 0 mm 4 m/S 735 mmHg 17%
    13:00 +20°C° 0 mm 3 m/S 735 mmHg 16%
    14:00 +21°C° 0 mm 3 m/S 734 mmHg 15%
    15:00 +20°C° 0 mm 3 m/S 734 mmHg 17%
    16:00 +19°C° 0 mm 3 m/S 733 mmHg 18%
    17:00 +19°C° 0 mm 3 m/S 733 mmHg 19%
    18:00 +18°C° 0 mm 3 m/S 733 mmHg 20%
    19:00 +16°C° 0 mm 3 m/S 734 mmHg 20%
    20:00 +14°C° 0 mm 3 m/S 734 mmHg 21%
    21:00 +14°C° 0 mm 3 m/S 734 mmHg 21%
    22:00 +14°C° 0 mm 3 m/S 734 mmHg 21%
    23:00 +13°C° 0 mm 3 m/S 734 mmHg 21%

    übermorgen, 19 Januar, Freitag

    Zeit Temperatur Niederschläge Wind Luftdruck Luftfeuchtigkeit
    00:00 +13°C° 0 mm 3 m/S 734 mmHg 21%
    01:00 +12°C° 0 mm 3 m/S 734 mmHg 21%
    02:00 +12°C° 0 mm 3 m/S 734 mmHg 21%
    03:00 +12°C° 0 mm 3 m/S 733 mmHg 20%
    04:00 +11°C° 0 mm 3 m/S 733 mmHg 20%
    05:00 +11°C° 0 mm 3 m/S 733 mmHg 20%
    06:00 +11°C° 0 mm 3 m/S 733 mmHg 20%
    07:00 +11°C° 0 mm 3 m/S 733 mmHg 20%
    08:00 +11°C° 0 mm 3 m/S 734 mmHg 19%
    09:00 +13°C° 0 mm 3 m/S 734 mmHg 17%
    10:00 +17°C° 0 mm 3 m/S 734 mmHg 15%
    11:00 +19°C° 0 mm 3 m/S 734 mmHg 12%
    12:00 +20°C° 0 mm 3 m/S 734 mmHg 11%
    13:00 +21°C° 0 mm 3 m/S 733 mmHg 11%
    14:00 +22°C° 0 mm 4 m/S 733 mmHg 10%
    15:00 +21°C° 0 mm 3 m/S 733 mmHg 11%
    16:00 +20°C° 0 mm 3 m/S 733 mmHg 12%
    17:00 +19°C° 0 mm 3 m/S 733 mmHg 13%
    18:00 +18°C° 0 mm 3 m/S 733 mmHg 13%
    19:00 +17°C° 0 mm 3 m/S 733 mmHg 13%
    20:00 +15°C° 0 mm 4 m/S 734 mmHg 13%
    21:00 +14°C° 0 mm 4 m/S 734 mmHg 13%
    22:00 +14°C° 0 mm 3 m/S 734 mmHg 13%
    23:00 +13°C° 0 mm 3 m/S 734 mmHg 14%

    20 Januar, Samstag

    Zeit Temperatur Niederschläge Wind Luftdruck Luftfeuchtigkeit
    00:00 +13°C° 0 mm 3 m/S 734 mmHg 14%
    01:00 +13°C° 0 mm 3 m/S 733 mmHg 14%
    02:00 +12°C° 0 mm 3 m/S 733 mmHg 14%
    03:00 +12°C° 0 mm 3 m/S 733 mmHg 14%
    04:00 +12°C° 0 mm 3 m/S 732 mmHg 14%
    05:00 +11°C° 0 mm 3 m/S 732 mmHg 15%
    06:00 +11°C° 0 mm 3 m/S 732 mmHg 15%
    07:00 +11°C° 0 mm 3 m/S 732 mmHg 15%
    08:00 +11°C° 0 mm 3 m/S 732 mmHg 16%
    09:00 +14°C° 0 mm 3 m/S 732 mmHg 14%
    10:00 +18°C° 0 mm 2 m/S 732 mmHg 12%
    11:00 +20°C° 0 mm 2 m/S 732 mmHg 10%
    12:00 +23°C° 0 mm 2 m/S 731 mmHg 9%
    13:00 +24°C° 0 mm 2 m/S 731 mmHg 9%
    14:00 +25°C° 0 mm 2 m/S 730 mmHg 8%
    15:00 +24°C° 0 mm 2 m/S 730 mmHg 10%
    16:00 +23°C° 0 mm 2 m/S 729 mmHg 11%
    17:00 +22°C° 0 mm 1 m/S 729 mmHg 13%
    18:00 +20°C° 0 mm 1 m/S 729 mmHg 13%
    19:00 +18°C° 0 mm 2 m/S 729 mmHg 13%
    20:00 +17°C° 0 mm 2 m/S 730 mmHg 13%
    21:00 +16°C° 0 mm 2 m/S 730 mmHg 13%
    22:00 +16°C° 0 mm 2 m/S 729 mmHg 13%
    23:00 +15°C° 0 mm 2 m/S 729 mmHg 13%

    21 Januar, Sonntag

    Zeit Temperatur Niederschläge Wind Luftdruck Luftfeuchtigkeit
    00:00 +15°C° 0 mm 2 m/S 729 mmHg 14%
    01:00 +15°C° 0 mm 2 m/S 729 mmHg 15%
    02:00 +14°C° 0 mm 2 m/S 729 mmHg 16%
    03:00 +14°C° 0 mm 2 m/S 728 mmHg 17%
    04:00 +14°C° 0 mm 2 m/S 728 mmHg 17%
    05:00 +13°C° 0 mm 2 m/S 728 mmHg 18%
    06:00 +13°C° 0 mm 2 m/S 728 mmHg 17%
    07:00 +13°C° 0 mm 2 m/S 728 mmHg 15%
    08:00 +13°C° 0 mm 1 m/S 729 mmHg 14%
    09:00 +16°C° 0 mm 1 m/S 729 mmHg 12%
    10:00 +20°C° 0 mm 1 m/S 729 mmHg 10%
    11:00 +23°C° 0 mm 1 m/S 730 mmHg 9%
    12:00 +24°C° 0 mm 1 m/S 729 mmHg 8%
    13:00 +25°C° 0 mm 1 m/S 729 mmHg 8%
    14:00 +26°C° 0 mm 1 m/S 728 mmHg 7%
    15:00 +25°C° 0 mm 1 m/S 728 mmHg 9%
    16:00 +23°C° 0 mm 1 m/S 728 mmHg 11%
    17:00 +20°C° 0 mm 0 m/S 728 mmHg 14%
    18:00 +21°C° 0 mm 1 m/S 728 mmHg 14%
    19:00 +19°C° 0 mm 1 m/S 728 mmHg 13%
    20:00 +18°C° 0 mm 1 m/S 729 mmHg 13%
    21:00 +16°C° 0 mm 1 m/S 729 mmHg 14%
    22:00 +16°C° 0 mm 1 m/S 729 mmHg 14%
    23:00 +15°C° 0 mm 1 m/S 729 mmHg 14%

    22 Januar, Montag

    Zeit Temperatur Niederschläge Wind Luftdruck Luftfeuchtigkeit
    00:00 +15°C° 0 mm 1 m/S 729 mmHg 14%
    01:00 +14°C° 0 mm 1 m/S 728 mmHg 15%
    02:00 +14°C° 0 mm 1 m/S 728 mmHg 15%
    03:00 +14°C° 0 mm 1 m/S 728 mmHg 15%
    04:00 +13°C° 0 mm 1 m/S 728 mmHg 15%
    05:00 +13°C° 0 mm 2 m/S 727 mmHg 14%
    06:00 +13°C° 0 mm 2 m/S 728 mmHg 14%
    07:00 +13°C° 0 mm 2 m/S 728 mmHg 14%
    08:00 +13°C° 0 mm 2 m/S 728 mmHg 14%
    09:00 +16°C° 0 mm 1 m/S 728 mmHg 12%
    10:00 +19°C° 0 mm 1 m/S 728 mmHg 10%
    11:00 +22°C° 0 mm 1 m/S 729 mmHg 8%
    12:00 +23°C° 0 mm 1 m/S 728 mmHg 8%
    13:00 +23°C° 0 mm 2 m/S 728 mmHg 7%
    14:00 +24°C° 0 mm 2 m/S 727 mmHg 7%
    15:00 +23°C° 0 mm 1 m/S 727 mmHg 9%
    16:00 +22°C° 0 mm 1 m/S 727 mmHg 11%
    17:00 +22°C° 0 mm 1 m/S 727 mmHg 13%
    18:00 +20°C° 0 mm 1 m/S 727 mmHg 13%
    19:00 +18°C° 0 mm 1 m/S 727 mmHg 14%
    20:00 +16°C° 0 mm 1 m/S 727 mmHg 14%
    21:00 +15°C° 0 mm 1 m/S 727 mmHg 15%
    22:00 +15°C° 0 mm 1 m/S 727 mmHg 15%
    23:00 +14°C° 0 mm 1 m/S 727 mmHg 15%
    Mehr zeigen